sat.trackr.live / text

‹ back to catalog

STARLINK-31383

NORAD 58936 · 2024-027F

PAYLOAD ACTIVE UNKNOWN

§ Identity

Operator
Country
US
Launch date
2024-02-10
Launch site
AFWTR
Launch vehicle
Mass (kg)
RCS (m²)

Purposes: comms

External: N2YO · Heavens-Above · Gunter

§ Orbital elements

Epoch: 2026-09-20T21:25:19.248096Z

Period
93.85 min
Inclination
53.1593°
Eccentricity
0.0000808
Mean motion
15.34392206 rev/d
Perigee alt
462.2 km
Apogee alt
463.3 km
Semi-major
6,840.9 km
B*
5.7465e-5
RAAN
121.5870°
Arg perigee
107.7943°
Mean anomaly
252.3148°
Rev number
14,723

§ Raw data

STARLINK-313831 58936U 24027F   26263.89258389  .00001566  00000+0  57465-4 0  99952 58936  53.1593 121.5870 0000808 107.7943 252.3148 15.34392206147237

JSON: /api/v1/satellites/58936 · /tle

For live sub-satellite position, see the globe view (requires WebGL).

§ Visibility from observer

Set your observer location to see the next 7 days of passes ≥ 10°. The values pass through the URL so the page stays shareable.

No JS? Fill the form by hand. The geolocation button needs JavaScript.